Location: Focicchia
(42.2496°N, 9.2935°E)
Time: 10:56:17
(UTC+00:00)

NOSS 3-1 (A) - Pass Details

Date: 07 June 2020
Orbit: 755 x 1458 km, 63.4° (Epoch: 16 June)

Event Time Altitude Azimuth Distance (km) Brightness Sun altitude
Rises 01:17:00 0° 325° (NW) 3,971 7.0 -19.7°
Reaches altitude 10° 01:19:33 10° 327° (NNW) 3,102 6.5 -19.5°
Maximum altitude 01:27:12 75° 53° (NE) 1,358 4.3 -18.8°
Drops below altitude 10° 01:35:55 10° 139° (SE) 3,517 6.2 -18.0°
Sets 01:38:58 0° 141° (SE) 4,527 6.8 -17.7°
